| time (UTC) | temp C | wind direction | speed KPH | gust KPH | rain 1hr cm | rain 24hr cm | rain mn cm | humidity % | barometer mb |
| 20260508130547 | 14 | 266 | 0.0 | 1.6 | 0.00 | 0.13 | 0.00 | 84 | 1018.0 |
| 20260508130058 | 14 | 264 | 0.0 | 1.6 | 0.00 | 0.13 | 0.00 | 85 | 1018.0 |
| 20260508124544 | 13 | 264 | 0.0 | 1.6 | 0.00 | 0.13 | 0.00 | 85 | 1017.9 |
| 20260508124056 | 13 | 264 | 0.0 | 1.6 | 0.00 | 0.13 | 0.00 | 87 | 1017.9 |
| 20260508123607 | 13 | 264 | 0.0 | 1.6 | 0.00 | 0.13 | 0.00 | 87 | 1017.8 |
| 20260508122600 | 13 | 242 | 0.0 | 0.0 | 0.00 | 0.13 | 0.00 | 90 | 1017.9 |
| 20260508122049 | 13 | 242 | 0.0 | 0.0 | 0.00 | 0.13 | 0.00 | 92 | 1017.7 |
| 20260508121552 | 12 | 242 | 0.0 | 0.0 | 0.00 | 0.13 | 0.00 | 93 | 1017.8 |
| 20260508121100 | 12 | 242 | 0.0 | 0.0 | 0.00 | 0.13 | 0.00 | 94 | 1017.7 |
| 20260508120549 | 12 | 242 | 0.0 | 0.0 | 0.00 | 0.13 | 0.00 | 94 | 1017.7 |
| 20260508120058 | 12 | 37 | 0.0 | 0.0 | 0.00 | 0.13 | 0.00 | 94 | 1017.7 |
| 20260508115055 | 11 | 37 | 0.0 | 0.0 | 0.00 | 0.23 | 0.00 | 94 | 1017.6 |
| 20260508114547 | 11 | 37 | 0.0 | 0.0 | 0.00 | 0.23 | 0.00 | 94 | 1017.5 |
| 20260508114057 | 11 | 37 | 0.0 | 0.0 | 0.00 | 0.23 | 0.00 | 94 | 1017.3 |
| 20260508113056 | 11 | 37 | 0.0 | 0.0 | 0.00 | 0.23 | 0.00 | 94 | 1017.0 |
| 20260508112544 | 11 | 37 | 0.0 | 0.0 | 0.00 | 0.23 | 0.00 | 94 | 1016.8 |
| 20260508112055 | 11 | 37 | 0.0 | 0.0 | 0.00 | 0.23 | 0.00 | 94 | 1016.7 |
| 20260508111601 | 11 | 37 | 0.0 | 0.0 | 0.00 | 0.23 | 0.00 | 93 | 1016.6 |
| 20260508111051 | 11 | 37 | 0.0 | 0.0 | 0.00 | 0.23 | 0.00 | 93 | 1016.5 |
| 20260508110603 | 11 | 37 | 0.0 | 0.0 | 0.00 | 0.23 | 0.00 | 93 | 1016.3 |
| 20260508110126 | 11 | 37 | 0.0 | 0.0 | 0.00 | 0.23 | 0.00 | 94 | 1016.2 |
| 20260508110024 | 11 | 37 | 0.0 | 0.0 | 0.00 | 0.23 | 0.00 | 94 | 1015.5 |
| 20260508105547 | 11 | 37 | 0.0 | 0.0 | 0.00 | 0.23 | 0.00 | 93 | 1016.1 |
| 20260508105059 | 11 | 37 | 0.0 | 0.0 | 0.00 | 0.23 | 0.00 | 93 | 1016.1 |
| 20260508104545 | 11 | 37 | 0.0 | 0.0 | 0.00 | 0.23 | 0.00 | 93 | 1016.1 |
| 20260508104053 | 11 | 37 | 0.0 | 0.0 | 0.00 | 0.23 | 0.00 | 93 | 1016.0 |
| 20260508103602 | 11 | 37 | 0.0 | 0.0 | 0.00 | 0.23 | 0.00 | 93 | 1015.8 |
| 20260508103515 | 11 | 37 | 0.0 | 0.0 | 0.00 | 0.23 | 0.00 | 93 | 1015.1 |
| 20260508102553 | 11 | 37 | 0.0 | 0.0 | 0.00 | 0.23 | 0.00 | 93 | 1015.5 |
| 20260508102510 | 11 | 37 | 0.0 | 0.0 | 0.00 | 0.23 | 0.00 | 93 | 1014.8 |
| 20260508101059 | 11 | 37 | 0.0 | 0.0 | 0.00 | 0.23 | 0.00 | 93 | 1015.4 |
| 20260508100551 | 11 | 37 | 0.0 | 0.0 | 0.00 | 0.23 | 0.00 | 93 | 1015.4 |
| 20260508100100 | 11 | 37 | 0.0 | 0.0 | 0.00 | 0.23 | 0.00 | 92 | 1015.5 |
| 20260508095547 | 11 | 37 | 0.0 | 0.0 | 0.00 | 0.41 | 0.00 | 92 | 1015.4 |
| 20260508095057 | 12 | 37 | 0.0 | 0.0 | 0.00 | 0.41 | 0.00 | 92 | 1015.3 |
| 20260508094603 | 12 | 37 | 0.0 | 0.0 | 0.00 | 0.41 | 0.00 | 92 | 1015.2 |
| 20260508093603 | 12 | 37 | 0.0 | 0.0 | 0.00 | 0.41 | 0.00 | 92 | 1015.1 |
| 20260508093054 | 12 | 37 | 0.0 | 0.0 | 0.00 | 0.41 | 0.00 | 92 | 1015.2 |
| 20260508092602 | 12 | 37 | 0.0 | 0.0 | 0.00 | 0.41 | 0.00 | 91 | 1015.1 |
| 20260508092052 | 12 | 37 | 0.0 | 0.0 | 0.00 | 0.41 | 0.00 | 91 | 1015.0 |
| 20260508091600 | 12 | 37 | 0.0 | 0.0 | 0.00 | 0.41 | 0.00 | 91 | 1014.9 |
| 20260508091048 | 12 | 37 | 0.0 | 0.0 | 0.00 | 0.41 | 0.00 | 91 | 1015.0 |
| 20260508090105 | 12 | 37 | 0.0 | 0.0 | 0.00 | 0.41 | 0.00 | 91 | 1015.0 |
| 20260508085551 | 13 | 37 | 0.0 | 0.0 | 0.00 | 0.64 | 0.00 | 91 | 1015.0 |
| 20260508085058 | 13 | 37 | 0.0 | 0.0 | 0.00 | 0.64 | 0.00 | 91 | 1015.0 |
| 20260508084057 | 13 | 37 | 0.0 | 0.0 | 0.00 | 0.64 | 0.00 | 91 | 1014.9 |
| 20260508083602 | 13 | 37 | 0.0 | 0.0 | 0.00 | 0.64 | 0.00 | 91 | 1014.8 |
| 20260508083050 | 13 | 37 | 0.0 | 0.0 | 0.00 | 0.64 | 0.00 | 91 | 1014.9 |
| 20260508082558 | 13 | 37 | 0.0 | 0.0 | 0.00 | 0.64 | 0.00 | 91 | 1014.9 |
| 20260508081051 | 13 | 37 | 0.0 | 0.0 | 0.00 | 0.64 | 0.00 | 90 | 1014.7 |
| 20260508075049 | 13 | 37 | 0.0 | 0.0 | 0.00 | 0.66 | 0.00 | 90 | 1014.5 |
| 20260508074602 | 13 | 37 | 0.0 | 0.0 | 0.00 | 0.66 | 0.00 | 91 | 1014.6 |
| 20260508074050 | 13 | 37 | 0.0 | 0.0 | 0.00 | 0.66 | 0.00 | 90 | 1014.7 |
| 20260508073559 | 13 | 37 | 0.0 | 0.0 | 0.00 | 0.66 | 0.00 | 91 | 1014.6 |
| 20260508073102 | 13 | 37 | 0.0 | 0.0 | 0.00 | 0.66 | 0.00 | 91 | 1014.7 |
| 20260508072546 | 13 | 37 | 0.0 | 0.0 | 0.00 | 0.66 | 0.00 | 90 | 1014.7 |
| 20260508072054 | 13 | 37 | 0.0 | 0.0 | 0.00 | 0.66 | 0.00 | 91 | 1014.6 |
| 20260508071603 | 13 | 37 | 0.0 | 0.0 | 0.00 | 0.66 | 0.00 | 91 | 1014.7 |
| 20260508071053 | 13 | 37 | 0.0 | 0.0 | 0.00 | 0.66 | 0.00 | 91 | 1014.7 |
| 20260508070545 | 13 | 37 | 0.0 | 0.0 | 0.00 | 0.66 | 0.00 | 92 | 1014.8 |
| 20260508070053 | 13 | 37 | 0.0 | 0.0 | 0.00 | 0.66 | 0.00 | 92 | 1014.8 |
| 20260508065602 | 13 | 37 | 0.0 | 0.0 | 0.00 | 0.76 | 0.00 | 92 | 1015.0 |
| 20260508065052 | 13 | 37 | 0.0 | 0.0 | 0.00 | 0.76 | 0.00 | 92 | 1015.0 |
| 20260508064049 | 13 | 37 | 0.0 | 0.0 | 0.00 | 0.76 | 0.00 | 92 | 1015.2 |
| 20260508063517 | 13 | 37 | 0.0 | 0.0 | 0.00 | 0.76 | 0.00 | 92 | 1014.3 |
| 20260508062552 | 13 | 37 | 0.0 | 0.0 | 0.00 | 0.76 | 0.00 | 92 | 1015.0 |
| 20260508062101 | 13 | 37 | 0.0 | 0.0 | 0.00 | 0.76 | 0.00 | 92 | 1015.2 |
| 20260508061549 | 13 | 37 | 0.0 | 0.0 | 0.00 | 0.76 | 0.00 | 92 | 1015.2 |
| 20260508061054 | 13 | 37 | 0.0 | 0.0 | 0.00 | 0.76 | 0.00 | 92 | 1015.3 |
| 20260508060603 | 13 | 37 | 0.0 | 0.0 | 0.00 | 0.76 | 0.00 | 92 | 1015.4 |
| 20260508060054 | 13 | 37 | 0.0 | 0.0 | 0.00 | 0.76 | 0.00 | 92 | 1015.2 |
| 20260508055600 | 13 | 37 | 0.0 | 0.0 | 0.00 | 1.07 | 0.00 | 92 | 1015.3 |
| 20260508055049 | 13 | 37 | 0.0 | 0.0 | 0.00 | 1.07 | 0.00 | 92 | 1015.3 |
| 20260508054558 | 13 | 37 | 0.0 | 0.0 | 0.00 | 1.07 | 0.00 | 92 | 1015.1 |
| 20260508054050 | 13 | 37 | 0.0 | 0.0 | 0.00 | 1.07 | 0.00 | 92 | 1015.4 |
| 20260508053600 | 13 | 37 | 0.0 | 0.0 | 0.00 | 1.07 | 0.00 | 92 | 1015.3 |
| 20260508053106 | 13 | 37 | 0.0 | 0.0 | 0.00 | 1.07 | 0.00 | 92 | 1015.3 |
| 20260508052554 | 13 | 37 | 0.0 | 0.0 | 0.00 | 1.07 | 0.00 | 92 | 1015.3 |
| 20260508052045 | 13 | 37 | 0.0 | 0.0 | 0.00 | 1.07 | 0.00 | 92 | 1015.3 |
| 20260508051049 | 13 | 37 | 0.0 | 0.0 | 0.00 | 1.07 | 0.00 | 91 | 1015.3 |
| 20260508050600 | 14 | 37 | 0.0 | 0.0 | 0.00 | 1.07 | 0.00 | 91 | 1015.3 |
| 20260508050107 | 14 | 37 | 0.0 | 0.0 | 0.00 | 1.07 | 0.00 | 91 | 1015.3 |
| 20260508045101 | 14 | 37 | 0.0 | 0.0 | 0.00 | 1.27 | 0.00 | 90 | 1015.5 |
| 20260508044551 | 14 | 37 | 0.0 | 0.0 | 0.00 | 1.27 | 0.00 | 91 | 1015.5 |
| 20260508044059 | 14 | 37 | 0.0 | 0.0 | 0.00 | 1.27 | 0.00 | 90 | 1015.3 |
| 20260508043547 | 14 | 37 | 0.0 | 0.0 | 0.00 | 1.27 | 0.00 | 90 | 1015.2 |
| 20260508043055 | 14 | 37 | 0.0 | 0.0 | 0.00 | 1.27 | 0.00 | 90 | 1015.1 |
| 20260508042557 | 15 | 37 | 0.0 | 0.0 | 0.00 | 1.27 | 0.00 | 90 | 1015.1 |
| 20260508042047 | 15 | 37 | 0.0 | 0.0 | 0.00 | 1.27 | 0.00 | 90 | 1015.0 |
| 20260508041557 | 15 | 37 | 0.0 | 0.0 | 0.00 | 1.27 | 0.00 | 89 | 1015.1 |
| 20260508041047 | 15 | 37 | 0.0 | 0.0 | 0.00 | 1.27 | 0.00 | 89 | 1015.1 |
| 20260508040600 | 15 | 37 | 0.0 | 0.0 | 0.00 | 1.27 | 0.00 | 90 | 1015.2 |
| 20260508040123 | 15 | 37 | 0.0 | 0.0 | 0.00 | 1.27 | 0.00 | 90 | 1015.3 |
| 20260508035601 | 15 | 37 | 0.0 | 0.0 | 0.00 | 1.27 | 1.27 | 89 | 1015.3 |
| 20260508035048 | 15 | 37 | 0.0 | 0.0 | 0.00 | 1.27 | 1.27 | 89 | 1015.2 |
| 20260508034556 | 15 | 37 | 0.0 | 0.0 | 0.00 | 1.27 | 1.27 | 89 | 1015.2 |
| 20260508033559 | 15 | 37 | 0.0 | 0.0 | 0.00 | 1.27 | 1.27 | 89 | 1015.2 |
| 20260508032556 | 15 | 37 | 0.0 | 0.0 | 0.00 | 1.27 | 1.27 | 89 | 1015.0 |
| 20260508032100 | 15 | 37 | 0.0 | 0.0 | 0.00 | 1.27 | 1.27 | 89 | 1015.0 |
| 20260508031551 | 15 | 37 | 0.0 | 0.0 | 0.00 | 1.27 | 1.27 | 89 | 1015.0 |
| 20260508031102 | 15 | 37 | 0.0 | 0.0 | 0.00 | 1.27 | 1.27 | 88 | 1014.9 |
| 20260508030117 | 16 | 37 | 0.0 | 0.0 | 0.00 | 1.27 | 1.27 | 88 | 1014.9 |
| 20260508025556 | 16 | 37 | 0.0 | 0.0 | 0.00 | 1.35 | 1.27 | 88 | 1014.9 |
| 20260508024550 | 16 | 37 | 0.0 | 0.0 | 0.00 | 1.35 | 1.27 | 88 | 1014.8 |
| 20260508024101 | 16 | 37 | 0.0 | 0.0 | 0.00 | 1.35 | 1.27 | 88 | 1014.6 |
| 20260508023552 | 16 | 37 | 0.0 | 0.0 | 0.00 | 1.35 | 1.27 | 88 | 1014.8 |
| 20260508023104 | 16 | 37 | 0.0 | 0.0 | 0.00 | 1.35 | 1.27 | 88 | 1014.5 |
| 20260508022100 | 16 | 37 | 0.0 | 0.0 | 0.00 | 1.35 | 1.27 | 87 | 1014.8 |
| 20260508021549 | 16 | 37 | 0.0 | 0.0 | 0.00 | 1.35 | 1.27 | 87 | 1014.8 |
| 20260508020054 | 16 | 37 | 0.0 | 0.0 | 0.00 | 1.35 | 1.27 | 88 | 1014.7 |
| 20260508015602 | 16 | 37 | 0.0 | 0.0 | 0.00 | 1.68 | 1.27 | 89 | 1014.5 |
| 20260508015053 | 16 | 37 | 0.0 | 0.0 | 0.00 | 1.68 | 1.27 | 87 | 1014.6 |
| 20260508014606 | 16 | 37 | 0.0 | 0.0 | 0.00 | 1.68 | 1.27 | 87 | 1014.4 |
| 20260508013601 | 16 | 37 | 0.0 | 0.0 | 0.00 | 1.68 | 1.27 | 87 | 1014.3 |
| 20260508013051 | 16 | 37 | 0.0 | 0.0 | 0.00 | 1.68 | 1.27 | 86 | 1014.3 |
| 20260508012558 | 17 | 37 | 0.0 | 0.0 | 0.00 | 1.68 | 1.27 | 87 | 1014.2 |
| 20260508012050 | 17 | 37 | 0.0 | 0.0 | 0.00 | 1.68 | 1.27 | 86 | 1014.2 |
| 20260508011559 | 17 | 37 | 0.0 | 0.0 | 0.00 | 1.68 | 1.27 | 86 | 1014.2 |
| 20260508011049 | 17 | 37 | 0.0 | 0.0 | 0.00 | 1.68 | 1.27 | 87 | 1014.1 |
| 20260508010600 | 17 | 37 | 0.0 | 0.0 | 0.00 | 1.68 | 1.27 | 86 | 1014.1 |
| 20260508010050 | 17 | 37 | 0.0 | 0.0 | 0.00 | 1.68 | 1.27 | 85 | 1014.0 |
| 20260508005044 | 17 | 37 | 0.0 | 0.0 | 0.00 | 1.80 | 1.27 | 83 | 1013.9 |
| 20260508004047 | 18 | 37 | 0.0 | 0.0 | 0.00 | 1.80 | 1.27 | 84 | 1013.7 |
| 20260508003558 | 18 | 37 | 0.0 | 0.0 | 0.00 | 1.80 | 1.27 | 84 | 1013.7 |
| 20260508003049 | 18 | 37 | 0.0 | 0.0 | 0.00 | 1.80 | 1.27 | 83 | 1013.7 |
| 20260508002045 | 18 | 37 | 0.0 | 1.6 | 0.00 | 1.80 | 1.27 | 84 | 1013.5 |
| 20260508000557 | 18 | 37 | 0.0 | 1.6 | 0.00 | 1.80 | 1.27 | 84 | 1013.4 |
| 20260508000106 | 19 | 37 | 0.0 | 3.2 | 0.00 | 1.80 | 1.27 | 83 | 1013.3 |
| 20260507235550 | 19 | 37 | 0.0 | 3.2 | 0.00 | 1.80 | 1.27 | 83 | 1013.2 |
| 20260507234605 | 19 | 216 | 0.0 | 3.2 | 0.00 | 1.80 | 1.27 | 83 | 1013.1 |
| 20260507234053 | 20 | 216 | 1.6 | 3.2 | 0.00 | 1.80 | 1.27 | 83 | 1013.0 |
| 20260507233052 | 20 | 283 | 0.0 | 3.2 | 0.00 | 1.80 | 1.27 | 82 | 1012.9 |
| 20260507232600 | 20 | 283 | 1.6 | 3.2 | 0.00 | 1.80 | 1.27 | 83 | 1012.9 |
| 20260507231049 | 20 | 114 | 0.0 | 1.6 | 0.00 | 1.80 | 1.27 | 83 | 1012.7 |
| 20260507230559 | 20 | 114 | 0.0 | 4.8 | 0.00 | 1.80 | 1.27 | 83 | 1012.7 |
| 20260507230048 | 20 | 114 | 1.6 | 4.8 | 0.00 | 1.80 | 1.27 | 83 | 1012.6 |
| 20260507225556 | 20 | 209 | 0.0 | 3.2 | 0.00 | 1.80 | 1.27 | 83 | 1012.6 |
| 20260507225046 | 20 | 183 | 0.0 | 1.6 | 0.00 | 1.80 | 1.27 | 83 | 1012.7 |
| 20260507224557 | 20 | 183 | 0.0 | 9.7 | 0.00 | 1.80 | 1.27 | 82 | 1012.7 |
| 20260507224047 | 20 | 187 | 1.6 | 9.7 | 0.00 | 1.80 | 1.27 | 82 | 1012.6 |
| 20260507223106 | 21 | 280 | 1.6 | 3.2 | 0.00 | 1.80 | 1.27 | 82 | 1012.4 |
| 20260507222551 | 21 | 279 | 0.0 | 4.8 | 0.00 | 1.80 | 1.27 | 82 | 1012.4 |
| 20260507222058 | 21 | 279 | 1.6 | 4.8 | 0.00 | 1.80 | 1.27 | 82 | 1012.4 |
| 20260507221549 | 21 | 271 | 1.6 | 3.2 | 0.00 | 1.80 | 1.27 | 82 | 1012.3 |
| 20260507220550 | 21 | 171 | 1.6 | 6.4 | 0.00 | 1.80 | 1.27 | 82 | 1012.3 |
| 20260507220052 | 21 | 237 | 0.0 | 3.2 | 0.00 | 1.80 | 1.27 | 81 | 1012.3 |
| 20260507215556 | 21 | 237 | 1.6 | 3.2 | 0.00 | 1.80 | 1.27 | 84 | 1012.2 |
| 20260507215107 | 21 | 237 | 1.6 | 3.2 | 0.00 | 1.80 | 1.27 | 83 | 1012.2 |
| 20260507214552 | 21 | 237 | 0.0 | 6.4 | 0.00 | 1.80 | 1.27 | 82 | 1012.1 |
| 20260507213105 | 21 | 127 | 0.0 | 6.4 | 0.00 | 1.80 | 1.27 | 83 | 1012.2 |
| 20260507212608 | 21 | 120 | 1.6 | 6.4 | 0.00 | 1.80 | 1.27 | 82 | 1012.3 |
| 20260507212055 | 20 | 203 | 0.0 | 3.2 | 0.00 | 1.80 | 1.27 | 83 | 1012.2 |
| 20260507211545 | 20 | 132 | 0.0 | 6.4 | 0.00 | 1.80 | 1.27 | 84 | 1012.2 |
| 20260507211056 | 20 | 226 | 1.6 | 6.4 | 0.00 | 1.80 | 1.27 | 86 | 1012.1 |
| 20260507210606 | 20 | 197 | 0.0 | 3.2 | 0.00 | 1.80 | 1.27 | 86 | 1012.1 |
| 20260507210126 | 20 | 192 | 1.6 | 4.8 | 0.00 | 1.80 | 1.27 | 85 | 1012.1 |
| 20260507205607 | 20 | 256 | 0.0 | 3.2 | 0.00 | 1.80 | 1.27 | 86 | 1012.1 |
| 20260507205052 | 20 | 257 | 1.6 | 4.8 | 0.00 | 1.80 | 1.27 | 85 | 1012.1 |
| 20260507204558 | 20 | 257 | 3.2 | 6.4 | 0.00 | 1.80 | 1.27 | 84 | 1012.2 |
| 20260507204046 | 21 | 250 | 1.6 | 9.7 | 0.00 | 1.80 | 1.27 | 82 | 1012.0 |
| 20260507203556 | 21 | 145 | 3.2 | 11.3 | 0.00 | 1.80 | 1.27 | 82 | 1012.1 |
| 20260507203106 | 21 | 155 | 4.8 | 11.3 | 0.00 | 1.80 | 1.27 | 84 | 1012.2 |
| 20260507202549 | 20 | 124 | 1.6 | 8.0 | 0.00 | 1.80 | 1.27 | 85 | 1012.2 |
| 20260507201553 | 20 | 308 | 1.6 | 6.4 | 0.00 | 1.80 | 1.27 | 86 | 1012.1 |
| 20260507200550 | 20 | 258 | 1.6 | 3.2 | 0.00 | 1.80 | 1.27 | 86 | 1012.3 |
| 20260507195606 | 20 | 196 | 1.6 | 3.2 | 0.00 | 1.80 | 1.27 | 87 | 1012.4 |
| 20260507194547 | 20 | 327 | 1.6 | 4.8 | 0.00 | 1.80 | 1.27 | 87 | 1012.4 |
| 20260507194057 | 20 | 327 | 1.6 | 4.8 | 0.00 | 1.80 | 1.27 | 88 | 1012.4 |
| 20260507193602 | 20 | 326 | 1.6 | 3.2 | 0.00 | 1.80 | 1.27 | 88 | 1012.4 |
| 20260507193051 | 20 | 326 | 1.6 | 4.8 | 0.00 | 1.80 | 1.27 | 89 | 1012.4 |
| 20260507192600 | 20 | 345 | 0.0 | 3.2 | 0.00 | 1.80 | 1.27 | 89 | 1012.4 |
| 20260507192047 | 20 | 345 | 1.6 | 3.2 | 0.00 | 1.80 | 1.27 | 89 | 1012.4 |
| 20260507191558 | 20 | 345 | 1.6 | 6.4 | 0.00 | 1.80 | 1.27 | 88 | 1012.4 |
| 20260507191105 | 20 | 326 | 1.6 | 6.4 | 0.00 | 1.80 | 1.27 | 89 | 1012.2 |
| 20260507190553 | 20 | 291 | 1.6 | 4.8 | 0.00 | 1.80 | 1.27 | 87 | 1012.3 |
| 20260507185549 | 20 | 333 | 0.0 | 0.0 | 0.00 | 1.80 | 1.27 | 89 | 1012.2 |
| 20260507185051 | 20 | 57 | 0.0 | 0.0 | 0.03 | 1.80 | 1.27 | 89 | 1012.1 |
| 20260507184602 | 20 | 64 | 0.0 | 1.6 | 0.03 | 1.80 | 1.27 | 89 | 1012.2 |
| 20260507184052 | 20 | 61 | 0.0 | 3.2 | 0.03 | 1.80 | 1.27 | 89 | 1012.3 |
| 20260507183603 | 20 | 124 | 0.0 | 3.2 | 0.03 | 1.80 | 1.27 | 89 | 1012.2 |
| 20260507183052 | 20 | 244 | 0.0 | 3.2 | 0.03 | 1.80 | 1.27 | 89 | 1012.2 |
| 20260507182557 | 20 | 244 | 1.6 | 3.2 | 0.03 | 1.80 | 1.27 | 89 | 1012.2 |
| 20260507182105 | 20 | 244 | 0.0 | 3.2 | 0.03 | 1.80 | 1.27 | 89 | 1012.2 |
| 20260507181103 | 20 | 222 | 0.0 | 4.8 | 0.03 | 1.80 | 1.27 | 89 | 1012.1 |
| 20260507180552 | 20 | 221 | 1.6 | 4.8 | 0.03 | 1.80 | 1.27 | 89 | 1012.1 |
| 20260507175551 | 21 | 167 | 0.0 | 6.4 | 0.03 | 1.80 | 1.27 | 88 | 1012.2 |
| 20260507175100 | 21 | 193 | 1.6 | 6.4 | 0.00 | 1.78 | 1.24 | 87 | 1012.2 |
| 20260507174602 | 21 | 188 | 3.2 | 9.7 | 0.00 | 1.78 | 1.24 | 88 | 1012.2 |
| 20260507174051 | 21 | 151 | 1.6 | 9.7 | 0.00 | 1.78 | 1.24 | 89 | 1012.1 |
| 20260507173558 | 21 | 148 | 0.0 | 3.2 | 0.00 | 1.78 | 1.24 | 89 | 1012.1 |
| 20260507173503 | 20 | 148 | 0.0 | 3.2 | 0.00 | 1.78 | 1.24 | 90 | 1010.8 |
| 20260507173108 | 21 | 148 | 1.6 | 3.2 | 0.00 | 1.78 | 1.24 | 88 | 1012.1 |
| 20260507172551 | 21 | 59 | 0.0 | 6.4 | 0.00 | 1.78 | 1.24 | 88 | 1012.2 |
| 20260507172057 | 21 | 134 | 1.6 | 12.9 | 0.00 | 1.78 | 1.24 | 87 | 1012.3 |
| 20260507171548 | 21 | 167 | 4.8 | 12.9 | 0.00 | 1.78 | 1.24 | 86 | 1012.2 |
| 20260507171055 | 21 | 177 | 3.2 | 8.0 | 0.00 | 1.78 | 1.24 | 85 | 1012.2 |
| 20260507170128 | 21 | 167 | 4.8 | 9.7 | 0.00 | 1.78 | 1.24 | 91 | 1012.3 |
| 20260507170022 | 21 | 158 | 4.8 | 9.7 | 0.00 | 1.78 | 1.24 | 91 | 1011.0 |
| 20260507165551 | 20 | 235 | 0.0 | 0.0 | 0.00 | 1.78 | 1.24 | 90 | 1012.5 |
| 20260507165059 | 20 | 235 | 0.0 | 11.3 | 0.00 | 1.78 | 1.24 | 89 | 1012.4 |
| 20260507164603 | 21 | 239 | 0.0 | 11.3 | 0.00 | 1.78 | 1.24 | 89 | 1012.3 |
| 20260507163602 | 21 | 212 | 1.6 | 6.4 | 0.00 | 1.78 | 1.24 | 90 | 1012.2 |
| 20260507163053 | 20 | 165 | 1.6 | 6.4 | 0.00 | 1.78 | 1.24 | 92 | 1012.2 |
| 20260507162556 | 20 | 269 | 0.0 | 3.2 | 0.00 | 1.78 | 1.24 | 91 | 1012.3 |
| 20260507162102 | 20 | 163 | 0.0 | 4.8 | 0.00 | 1.78 | 1.24 | 91 | 1012.3 |
| 20260507161553 | 20 | 164 | 0.0 | 3.2 | 0.00 | 1.78 | 1.24 | 91 | 1012.4 |
| 20260507161102 | 20 | 134 | 1.6 | 3.2 | 0.00 | 1.78 | 1.24 | 92 | 1012.4 |
| 20260507160551 | 20 | 134 | 1.6 | 3.2 | 0.00 | 1.78 | 1.24 | 93 | 1012.5 |
| 20260507155548 | 20 | 168 | 0.0 | 1.6 | 0.00 | 1.78 | 1.24 | 94 | 1012.5 |
| 20260507155055 | 20 | 168 | 0.0 | 8.0 | 0.00 | 1.78 | 1.24 | 94 | 1012.4 |
| 20260507154600 | 20 | 168 | 3.2 | 8.0 | 0.00 | 1.78 | 1.24 | 95 | 1012.4 |
| 20260507154049 | 19 | 173 | 0.0 | 0.0 | 0.00 | 1.78 | 1.24 | 94 | 1012.3 |
| 20260507153601 | 20 | 173 | 0.0 | 0.0 | 0.03 | 1.78 | 1.24 | 95 | 1012.3 |
| 20260507153050 | 20 | 172 | 0.0 | 0.0 | 0.05 | 1.78 | 1.24 | 96 | 1012.1 |
| 20260507152558 | 19 | 172 | 0.0 | 0.0 | 0.05 | 1.78 | 1.24 | 96 | 1011.8 |
| 20260507152048 | 18 | 172 | 0.0 | 4.8 | 0.05 | 1.78 | 1.24 | 96 | 1011.8 |
| 20260507151600 | 18 | 172 | 0.0 | 4.8 | 0.05 | 1.78 | 1.24 | 97 | 1011.8 |
| 20260507150105 | 18 | 359 | 0.0 | 0.0 | 0.05 | 1.78 | 1.24 | 97 | 1011.9 |
| 20260507145552 | 18 | 359 | 0.0 | 0.0 | 0.05 | 1.78 | 1.24 | 97 | 1011.8 |
| 20260507145101 | 18 | 359 | 0.0 | 0.0 | 0.05 | 1.78 | 1.24 | 97 | 1011.8 |
| 20260507144552 | 18 | 359 | 0.0 | 0.0 | 0.08 | 1.78 | 1.24 | 97 | 1011.8 |
| 20260507144059 | 18 | 359 | 0.0 | 0.0 | 0.08 | 1.78 | 1.24 | 97 | 1012.0 |
| 20260507143555 | 18 | 359 | 0.0 | 0.0 | 0.05 | 1.75 | 1.22 | 97 | 1011.9 |
| 20260507142548 | 18 | 359 | 0.0 | 0.0 | 0.03 | 1.73 | 1.19 | 97 | 1012.3 |
| 20260507142055 | 18 | 359 | 0.0 | 0.0 | 0.03 | 1.73 | 1.19 | 97 | 1012.2 |
| 20260507141603 | 18 | 359 | 0.0 | 0.0 | 0.03 | 1.73 | 1.19 | 97 | 1011.8 |
| 20260507141052 | 18 | 359 | 0.0 | 1.6 | 0.03 | 1.73 | 1.19 | 97 | 1011.4 |
| 20260507140601 | 18 | 359 | 1.6 | 1.6 | 0.03 | 1.73 | 1.19 | 97 | 1011.4 |
| 20260507135557 | 18 | 359 | 0.0 | 0.0 | 0.05 | 1.73 | 1.19 | 97 | 1011.6 |
| 20260507135047 | 18 | 359 | 0.0 | 0.0 | 0.05 | 1.73 | 1.19 | 96 | 1011.8 |
| 20260507134556 | 18 | 359 | 0.0 | 1.6 | 0.03 | 1.70 | 1.17 | 96 | 1011.9 |
| 20260507134044 | 18 | 359 | 0.0 | 1.6 | 0.03 | 1.70 | 1.17 | 96 | 1011.8 |
| 20260507133555 | 18 | 359 | 0.0 | 1.6 | 0.03 | 1.70 | 1.17 | 96 | 1011.5 |
| 20260507133102 | 18 | 356 | 0.0 | 3.2 | 0.03 | 1.70 | 1.17 | 96 | 1011.4 |
| 20260507132551 | 18 | 356 | 1.6 | 1.6 | 0.03 | 1.70 | 1.17 | 97 | 1011.4 |
| 20260507132058 | 18 | 356 | 0.0 | 1.6 | 0.03 | 1.70 | 1.17 | 96 | 1011.3 |
| 20260507131546 | 18 | 356 | 1.6 | 3.2 | 0.03 | 1.70 | 1.17 | 96 | 1011.2 |